This is the latest recevied weather packets stored in our database for station/object SP1BMW-13. If no packets are shown the sender has not sent any weather packets the latest 10 day(s).
| Time | Temp. | Humidity | Pressure | Rain* | Wind** | Luminosity | Snow |
|---|---|---|---|---|---|---|---|
| 1787797994 | 13.89° C | 82% | 1021.1 hPa | 0 mm | 0.45 m/s, 76° | 0 W/m² | - |
| 1787797934 | 13.89° C | 82% | 1021.3 hPa | 0 mm | 0.89 m/s, 66° | 0 W/m² | - |
| 1787797874 | 13.89° C | 82% | 1021.1 hPa | 0 mm | 0.45 m/s, 92° | 0 W/m² | - |
| 1787797815 | 13.89° C | 81% | 1021 hPa | 0 mm | 0 m/s | 0 W/m² | - |
| 1787797754 | 13.89° C | 82% | 1021.2 hPa | 0 mm | 0.45 m/s, 60° | 0 W/m² | - |
| 1787797694 | 13.89° C | 82% | 1021.2 hPa | 0 mm | 0 m/s | 0 W/m² | - |
| 1787797634 | 13.89° C | 82% | 1021.2 hPa | 0 mm | 0.89 m/s, 35° | 0 W/m² | - |
| 1787797574 | 13.89° C | 81% | 1021.2 hPa | 0 mm | 0 m/s | 0 W/m² | - |
| 1787797515 | 13.89° C | 82% | 1021.1 hPa | 0 mm | 0.89 m/s, 20° | 0 W/m² | - |
| 1787797454 | 13.89° C | 81% | 1021.3 hPa | 0 mm | 0.45 m/s, 58° | 0 W/m² | - |
| 1787797394 | 13.89° C | 82% | 1021.1 hPa | 0 mm | 0.45 m/s, 75° | 0 W/m² | - |
| 1787797334 | 13.89° C | 82% | 1021.3 hPa | 0 mm | 0.89 m/s, 69° | 0 W/m² | - |
| 1787797274 | 13.89° C | 81% | 1021.2 hPa | 0 mm | 0.45 m/s, 88° | 0 W/m² | - |
| 1787797215 | 13.89° C | 81% | 1021 hPa | 0 mm | 0 m/s | 0 W/m² | - |
| 1787797154 | 13.89° C | 81% | 1021.4 hPa | 0 mm | 0 m/s | 0 W/m² | - |
| 1787797094 | 13.89° C | 81% | 1021.2 hPa | 0 mm | 0 m/s | 0 W/m² | - |
| 1787797035 | 13.89° C | 81% | 1021.1 hPa | 0 mm | 0.45 m/s, 118° | 0 W/m² | - |
| 1787796975 | 13.89° C | 81% | 1021.1 hPa | 0 mm | 0.45 m/s, 74° | 0 W/m² | - |
| 1787796914 | 13.89° C | 81% | 1021.1 hPa | 0 mm | 0.45 m/s, 43° | 0 W/m² | - |
| 1787796854 | 13.89° C | 81% | 1021.1 hPa | 0 mm | 0.45 m/s, 149° | 0 W/m² | - |
| 1787796795 | 13.89° C | 81% | 1021.3 hPa | 0 mm | 0.89 m/s, 66° | 0 W/m² | - |
| 1787796735 | 13.89° C | 80% | 1021.2 hPa | 0 mm | 0.89 m/s, 27° | 0 W/m² | - |
| 1787796674 | 13.89° C | 80% | 1021.2 hPa | 0 mm | 0.45 m/s, 109° | 0 W/m² | - |
| 1787796614 | 13.89° C | 80% | 1021.1 hPa | 0 mm | 0 m/s | 0 W/m² | - |
| 1787796555 | 13.89° C | 80% | 1021.2 hPa | 0 mm | 0.89 m/s, 35° | 0 W/m² | - |
* Rain latest hour (hover to see other rain measurements)
** Current wind speed in m/s (hover to see current wind gust speed)